Tracking 18980 objects as of 19-Feb-2018
HD Live streaming from Space Station
objects crossing your sky now

SURCAL 150B

Track SURCAL 150B now!
10-day predictions
SURCAL 150B is classified as:


NORAD ID: 2909
Int'l Code: 1967-053J
Perigee: 695.9 km
Apogee: 700.8 km
Inclination: 69.9 °
Period: 98.6 minutes
Semi major axis: 7069 km
RCS: 0.061 m2 (small)
Launch date: May 31, 1967
Source: United States (US)
Launch site: AIR FORCE WESTERN TEST RANGE (AFWTR)
aabbcc
Your satellite tracking list
Your tracking list is empty




NASA's NSSDC Master Catalog

Two Line Element Set (TLE):
1 02909U 67053J   18050.22754228  .00000676  00000-0  15261-3 0  9994
2 02909  69.9477  86.9128 0003468 201.8800 158.2192 14.60613154633324
Source of the keplerian elements: AFSPC